Home   Weather   42°23'N, 89°01'W   Past weeks
Flag for USA

Past Weather in 42°23'N, 89°01'W, USA — Yesterday and Last 2 Weeks

Now
37 °F

Passing clouds.


Feels Like: 32 °F
Forecast: 60 / 37 °F
Wind: 6 mph from Southeast

Location: Greater Rockford Airport

Current Time: Oct 18, 2019 at 6:24:57 am

Latest Report: Oct 18, 2019 at 5:54 am


Visibility: 10 mi

Pressure: 30.07 "Hg

Humidity: 93%

Dew Point: 35 °F

Location of 42°23'N, 89°01'WLocation

Past Weather in 42°23'N, 89°01'W — Graph

°F

42°23'N, 89°01'W Temperature Yesterday

Maximum temperature yesterday: 56 °F (at 3:54 pm)
Minimum temperature yesterday: 38 °F (at 5:54 am)
Average temperature yesterday: 46 °F

High & Low Weather Summary for the Past Weeks

 TemperatureHumidityPressure
High71 °F (Oct 8, 2:54 pm)100% (Oct 3, 5:54 am)30.45 "Hg (Oct 3, 5:54 am)
Low33 °F (Oct 14, 4:54 am)33% (Oct 12, 3:54 pm)29.71 "Hg (Oct 15, 3:54 pm)
Average52 °F74%30.05 "Hg
* Reported Oct 3 4:29 am — Oct 18 4:54 am, 42°23'N, 89°01'W. Weather by CustomWeather, © 2019

Note: Actual official high and low records may vary slightly from our data, if they occured in-between our weather recording intervals... More about our weather records

Advertising

42°23'N, 89°01'W Weather History for the Previous 24 Hours

Scroll right to see more
 ConditionsComfort  
Time TempWeatherWind HumidityBarometerVisibility
4:54 am
Fri, Oct 18
38 °FClear.No wind93%30.08 "Hg9 mi
3:54 am38 °FClear.No wind93%30.08 "Hg10 mi
2:54 am39 °FClear.5 mph89%30.07 "Hg10 mi
1:54 am39 °FClear.No wind89%30.07 "Hg10 mi
12:54 am41 °FClear.6 mph86%30.06 "Hg10 mi
11:54 pm
Thu, Oct 17
41 °FClear.5 mph82%30.06 "Hg10 mi
10:54 pm42 °FClear.6 mph82%30.06 "Hg10 mi
9:54 pm43 °FClear.5 mph79%30.06 "Hg10 mi
8:54 pm43 °FClear.No wind79%30.06 "Hg10 mi
7:54 pm45 °FClear.5 mph76%30.05 "Hg10 mi
6:54 pm48 °FClear.5 mph68%30.05 "Hg10 mi
5:54 pm53 °FSunny.7 mph55%30.02 "Hg10 mi
4:54 pm55 °FPassing clouds.5 mph53%30.03 "Hg10 mi
3:54 pm56 °FScattered clouds.6 mph51%30.03 "Hg10 mi
2:54 pm55 °FScattered clouds.5 mph53%30.04 "Hg10 mi
1:54 pm54 °FPartly sunny.3 mph57%30.06 "Hg10 mi
12:54 pm54 °FPartly sunny.6 mph57%30.08 "Hg10 mi
11:54 am52 °FPartly sunny.3 mph57%30.09 "Hg10 mi
10:54 am50 °FPartly sunny.7 mph63%30.11 "Hg10 mi
8:54 am45 °FPassing clouds.No wind80%30.09 "Hg10 mi
7:54 am40 °FPartly sunny.No wind93%30.08 "Hg10 mi
6:54 am38 °FPassing clouds.No wind93%30.06 "Hg10 mi
Weather by CustomWeather, © 2019

See weather overview